Карточка аэропорта USNN

Внимание!
Информация на этой странице в стадии наполнения.
Если вы не увидели какой-то информации, или заметили неточность - пожалуйста сообщите нам!
Спасибо!
Команда RU-STAFF
Название аэропортаНижневартовск
Название аэропорта (англ.)Nizhnevartovsk
Превышение177 ft. (53.9 m.)
Координаты60°57', 76°28.998'
Высота перехода800m
Эшелон переходаQFE>=756mm:FL040; QFE<756=>729:FL050; QFE<729:FL060
Коды ответчика5630-5633
Зона ОрВДТюмень РПИ (USTV)
Данные METARUSNN 211000Z 17004MPS CAVOK 22/09 Q1000 R21/0///65 NOSIG RMK QFE745
Проноз погоды (TAF)USNN 210745Z 2109/2209 12003G08MPS 9999 SCT040
NOTAMshow/hide NOTAM
AWOS   TABLE

Информация о ВПП

ВПП Длина ВПП (м.) Покрытие Курс ВПП Частота ILS
213200Асфальтобетон206111.9
033200Асфальтобетон26110.5

Диспетчерские позиции

Позывной Наименование органа УВД Частота
USNN_APPНижневартовск - Круг120.400
USNN_TWRНижневартовск - Вышка118.100



Спутниковое изображение